Weather History for Kenosha, WI

Change the Weather History Date:

Monday, January 6, 2014

  Actual Average Record
Temperature  
Mean Temperature -10 °F -  
Max Temperature -6 °F 27 °F 57 °F (2008)
Min Temperature -14 °F 14 °F -14 °F (2014)
Degree Days  
Heating Degree Days 75    
Moisture  
Dew Point -22 °F    
Average Humidity 60    
Maximum Humidity 68    
Minimum Humidity 52    
Precipitation  
Precipitation 0.00 in - - ()
Sea Level Pressure  
Sea Level Pressure 30.17 in    
Wind  
Wind Speed 19 mph (West)    
Max Wind Speed 24 mph    
Max Gust Speed 34 mph    
Visibility 8 miles    
Events      
Averages and records for this station are not official NWS values.
T = Trace of Precipitation, MM = Missing Value Source: NWS Daily Summary

Daily Weather History Graph

Daily Weather History Graph

Search for Another Location

Airport:

Trip Planner

Search our weather history database for the weather conditions in past years. The results will help you decide how hot, cold, wet, or windy it might be!

Date:

Astronomy

Jan. 06, 2014 Rise Set
Actual Time 7:21 AM CST 4:33 PM CST
Civil Twilight 6:49 AM CST 5:05 PM CST
Nautical Twilight 6:14 AM CST 5:40 PM CST
Astronomical Twilight 5:40 AM CST 6:15 PM CST
Moon 10:28 AM CST (1/6) 11:16 PM CST (1/6)
Length of Visible Light 10h 15m
Length of Day
9h 12m
Waxing Crescent, 35% of the Moon is Illuminated
Jan 6
Waxing Crescent
Jan 7
First Quarter
Jan 15
Full
Jan 23
Last Quarter
Jan 30
New

Hourly Weather History & Observations

Time (CST) Temp. Windchill Dew Point Humidity Pressure Visibility Wind Dir Wind Speed Gust Speed Precip Events Conditions
12:53 AM -6.0 °F -30.2 °F -17.0 °F 59% 30.05 in 7.0 mi WNW 20.7 mph 31.1 mph N/A   Clear
1:53 AM -7.1 °F -31.6 °F -18.0 °F 59% 30.07 in 8.0 mi WNW 20.7 mph 31.1 mph N/A   Clear
2:53 AM -9.0 °F -34.2 °F -18.9 °F 62% 30.09 in 7.0 mi WNW 20.7 mph 33.4 mph N/A   Clear
3:53 AM -9.9 °F -35.4 °F -20.0 °F 61% 30.09 in 5.0 mi West 20.7 mph 32.2 mph N/A   Haze
4:53 AM -11.0 °F -38.4 °F -20.9 °F 62% 30.09 in 4.0 mi WNW 24.2 mph 34.5 mph N/A   Haze
5:53 AM -11.9 °F -39.1 °F -20.9 °F 64% 30.12 in 7.0 mi West 23.0 mph 31.1 mph 0.00 in   Clear
6:53 AM -11.9 °F -37.4 °F -20.9 °F 64% 30.13 in 5.0 mi West 19.6 mph 28.8 mph N/A   Haze
7:13 AM -11.9 °F -36.1 °F -20.9 °F 64% 30.08 in 2.5 mi West 17.3 mph 23.0 mph N/A   Haze
7:21 AM -13.0 °F -36.8 °F -20.9 °F 68% 30.08 in 5.0 mi West 16.1 mph - N/A   Haze
7:53 AM -14.1 °F -37.4 °F -22.0 °F 68% 30.17 in 5.0 mi West 15.0 mph 24.2 mph N/A   Haze
8:53 AM -14.1 °F -38.2 °F -25.1 °F 58% 30.19 in 5.0 mi West 16.1 mph 27.6 mph N/A   Haze
9:53 AM -14.1 °F -39.6 °F -25.1 °F 58% 30.19 in 10.0 mi West 18.4 mph 26.5 mph N/A   Clear
10:53 AM -14.1 °F -39.6 °F -25.1 °F 58% 30.19 in 10.0 mi West 18.4 mph 28.8 mph N/A   Clear
11:53 AM -13.0 °F -39.4 °F -26.0 °F 53% 30.17 in 10.0 mi West 20.7 mph 29.9 mph N/A   Clear
12:53 PM -13.0 °F -36.8 °F -25.1 °F 55% 30.18 in 10.0 mi West 16.1 mph 29.9 mph N/A   Clear
1:53 PM -13.0 °F -36.0 °F -25.1 °F 55% 30.18 in 10.0 mi West 15.0 mph 27.6 mph N/A   Clear
2:53 PM -11.9 °F -38.0 °F -25.1 °F 52% 30.20 in 10.0 mi West 20.7 mph 27.6 mph N/A   Clear
3:53 PM -11.9 °F -33.8 °F -24.0 °F 55% 30.22 in 10.0 mi West 13.8 mph - N/A   Clear
4:53 PM -13.0 °F -36.0 °F -24.0 °F 58% 30.23 in 10.0 mi West 15.0 mph - N/A   Clear
5:53 PM -11.9 °F -36.1 °F -23.1 °F 58% 30.23 in 9.0 mi West 17.3 mph 24.2 mph N/A   Partly Cloudy
6:53 PM -11.9 °F -36.1 °F -23.1 °F 58% 30.24 in 10.0 mi West 17.3 mph - N/A   Clear
7:53 PM -11.9 °F -37.4 °F -23.1 °F 58% 30.24 in 10.0 mi West 19.6 mph 27.6 mph N/A   Clear
8:53 PM -11.9 °F -35.4 °F -23.1 °F 58% 30.25 in 10.0 mi West 16.1 mph 23.0 mph N/A   Clear
9:53 PM -11.9 °F -33.0 °F -22.0 °F 61% 30.25 in 10.0 mi West 12.7 mph - N/A   Clear
10:53 PM -13.0 °F -36.0 °F -22.0 °F 64% 30.23 in 10.0 mi West 15.0 mph - N/A   Clear
11:53 PM -13.0 °F -36.8 °F -22.0 °F 64% 30.25 in 10.0 mi West 16.1 mph - N/A   Clear